EZY24CV EGGW-LEMD

Flight info

Callsign EZY24CV
Flight time 2h 3m
Altitude 35000
Route RODNI N27 ICTAM Q63 CPT Y321 PEPIS Q41 SAM M195 MARUK N621 LELNA DCT NOVAN/N0460F370 DCT DELOG DCT VADOX DCT SNR DCT TITAN DCT RATAS DCT NEA N864 NONTU
Aircraft A319/M-SDE3FGHIRWY/LB1

Departure

Time 2026-05-05 07:59
Airport London Luton Airport (EGGW)

Arrival

Time 2026-05-05 10:02
Airport Adolfo Suárez Madrid–Barajas Airport (LEMD)
Time Latitude Longitude Altitude Speed Heading
2026-05-05 07:33 51.87840 -0.37845 534 ft 0 kts 28°
2026-05-05 07:52 51.87819 -0.37863 534 ft 3 kts 28°
2026-05-05 07:52 51.87802 -0.37884 534 ft 4 kts 72°
2026-05-05 07:52 51.87806 -0.37923 534 ft 4 kts 121°
2026-05-05 07:52 51.87820 -0.37953 534 ft 2 kts 132°
2026-05-05 07:53 51.87820 -0.37954 534 ft 0 kts 132°
2026-05-05 07:55 51.87819 -0.37951 534 ft 2 kts 132°
2026-05-05 07:55 51.87797 -0.37894 534 ft 11 kts 118°
2026-05-05 07:55 51.87758 -0.37757 534 ft 15 kts 114°
2026-05-05 07:55 51.87710 -0.37586 534 ft 18 kts 114°
2026-05-05 07:56 51.87622 -0.37459 536 ft 17 kts 161°
2026-05-05 07:56 51.87515 -0.37511 536 ft 18 kts 240°
2026-05-05 07:56 51.87477 -0.37717 536 ft 20 kts 255°
2026-05-05 07:56 51.87442 -0.37922 536 ft 11 kts 253°
2026-05-05 07:57 51.87401 -0.38040 536 ft 13 kts 216°
2026-05-05 07:57 51.87358 -0.38077 535 ft 0 kts 203°
2026-05-05 07:58 51.87336 -0.38093 534 ft 9 kts 203°
2026-05-05 07:58 51.87258 -0.38090 532 ft 12 kts 124°
2026-05-05 07:58 51.87259 -0.38050 532 ft 0 kts 77°
2026-05-05 07:59 51.87286 -0.37863 537 ft 55 kts 76°
2026-05-05 07:59 51.87467 -0.36825 540 ft 133 kts 74°
2026-05-05 07:59 51.87761 -0.35152 889 ft 161 kts 72°
2026-05-05 07:59 51.88080 -0.33435 1809 ft 153 kts 70°
2026-05-05 08:00 51.88427 -0.31861 2736 ft 145 kts 68°
2026-05-05 08:00 51.88766 -0.30237 3194 ft 164 kts 70°
2026-05-05 08:00 51.89060 -0.28388 3744 ft 178 kts 74°
2026-05-05 08:00 51.89333 -0.26266 3987 ft 212 kts 85°
2026-05-05 08:01 51.88963 -0.23715 3997 ft 257 kts 118°
2026-05-05 08:01 51.87716 -0.21537 3992 ft 272 kts 147°
2026-05-05 08:01 51.85940 -0.20555 3995 ft 274 kts 176°
2026-05-05 08:01 51.84103 -0.21031 3989 ft 274 kts 205°
2026-05-05 08:02 51.82581 -0.22861 3987 ft 274 kts 234°
2026-05-05 08:02 51.81740 -0.25547 3975 ft 273 kts 251°
2026-05-05 08:02 51.80661 -0.28085 4315 ft 279 kts 223°
2026-05-05 08:02 51.79110 -0.29967 5274 ft 279 kts 214°
2026-05-05 08:03 51.77486 -0.31652 6335 ft 279 kts 214°
2026-05-05 08:03 51.75854 -0.33387 7266 ft 284 kts 216°
2026-05-05 08:03 51.74225 -0.35226 8207 ft 287 kts 217°
2026-05-05 08:03 51.72606 -0.37147 9133 ft 292 kts 218°
2026-05-05 08:04 51.70977 -0.39126 10070 ft 294 kts 218°
2026-05-05 08:04 51.69306 -0.41164 10683 ft 312 kts 218°
2026-05-05 08:04 51.67533 -0.43327 11092 ft 334 kts 218°
2026-05-05 08:04 51.65614 -0.45668 11744 ft 346 kts 218°
2026-05-05 08:05 51.63717 -0.47967 12592 ft 347 kts 218°
2026-05-05 08:05 51.61777 -0.50327 13392 ft 351 kts 217°
2026-05-05 08:05 51.59820 -0.52698 14176 ft 354 kts 217°
2026-05-05 08:05 51.57838 -0.55100 14934 ft 359 kts 217°
2026-05-05 08:06 51.55839 -0.57526 15707 ft 362 kts 217°
2026-05-05 08:06 51.53816 -0.59967 16450 ft 366 kts 217°
2026-05-05 08:06 51.51769 -0.62426 17220 ft 368 kts 217°
2026-05-05 08:06 51.49709 -0.64903 17889 ft 372 kts 217°
2026-05-05 08:07 51.47634 -0.67408 18536 ft 376 kts 217°
2026-05-05 08:07 51.45563 -0.69899 19186 ft 380 kts 217°
2026-05-05 08:07 51.43441 -0.72451 19887 ft 382 kts 217°
2026-05-05 08:07 51.41315 -0.75013 20484 ft 384 kts 216°
2026-05-05 08:08 51.39158 -0.77595 21070 ft 388 kts 216°
2026-05-05 08:08 51.36993 -0.80191 21715 ft 390 kts 216°
2026-05-05 08:08 51.34813 -0.82804 22307 ft 393 kts 216°
2026-05-05 08:08 51.32623 -0.85417 22863 ft 395 kts 216°
2026-05-05 08:09 51.30404 -0.88056 23396 ft 398 kts 216°
2026-05-05 08:09 51.28176 -0.90703 23894 ft 402 kts 216°
2026-05-05 08:09 51.25924 -0.93378 24479 ft 404 kts 216°
2026-05-05 08:09 51.23700 -0.96028 25022 ft 405 kts 216°
2026-05-05 08:10 51.21437 -0.98721 25555 ft 407 kts 216°
2026-05-05 08:10 51.19170 -1.01417 26064 ft 408 kts 216°
2026-05-05 08:10 51.16885 -1.04115 26579 ft 409 kts 216°
2026-05-05 08:10 51.14593 -1.06822 27055 ft 412 kts 216°
2026-05-05 08:11 51.12289 -1.09545 27449 ft 413 kts 216°
2026-05-05 08:11 51.09981 -1.12277 27897 ft 414 kts 216°
2026-05-05 08:11 51.07665 -1.15008 28327 ft 417 kts 216°
2026-05-05 08:11 51.05223 -1.17441 28828 ft 415 kts 209°
2026-05-05 08:12 51.02704 -1.19691 29220 ft 416 kts 208°
2026-05-05 08:12 51.00173 -1.21944 29548 ft 417 kts 208°
2026-05-05 08:12 50.97667 -1.24170 29854 ft 419 kts 208°
2026-05-05 08:12 50.95119 -1.26432 30272 ft 419 kts 208°
2026-05-05 08:13 50.92574 -1.28701 30532 ft 423 kts 208°
2026-05-05 08:13 50.89994 -1.30995 30800 ft 426 kts 208°
2026-05-05 08:13 50.87396 -1.33300 31072 ft 429 kts 208°
2026-05-05 08:13 50.84795 -1.35610 31429 ft 430 kts 208°
2026-05-05 08:14 50.82179 -1.37924 31769 ft 431 kts 208°
2026-05-05 08:14 50.79562 -1.40233 32129 ft 430 kts 208°
2026-05-05 08:14 50.76948 -1.42541 32445 ft 431 kts 208°
2026-05-05 08:14 50.74512 -1.44686 32707 ft 432 kts 208°
2026-05-05 08:15 50.71921 -1.46966 33014 ft 432 kts 208°
2026-05-05 08:15 50.69289 -1.49284 33330 ft 433 kts 208°
2026-05-05 08:15 50.66666 -1.51584 33649 ft 433 kts 208°
2026-05-05 08:15 50.64035 -1.53899 33932 ft 434 kts 208°
2026-05-05 08:16 50.61388 -1.56218 34266 ft 434 kts 208°
2026-05-05 08:16 50.58757 -1.58516 34585 ft 434 kts 208°
2026-05-05 08:16 50.56118 -1.60816 34875 ft 433 kts 208°
2026-05-05 08:16 50.53483 -1.63118 34986 ft 433 kts 208°
2026-05-05 08:17 50.48249 -1.67673 34984 ft 432 kts 208°
2026-05-05 08:17 50.42986 -1.72237 35003 ft 433 kts 208°
2026-05-05 08:18 50.37733 -1.76784 34989 ft 431 kts 208°
2026-05-05 08:18 50.32491 -1.81319 34980 ft 432 kts 208°
2026-05-05 08:19 50.26955 -1.84756 34986 ft 432 kts 198°
2026-05-05 08:19 50.21233 -1.87649 35007 ft 434 kts 198°
2026-05-05 08:20 50.15470 -1.90553 35023 ft 435 kts 197°
2026-05-05 08:20 50.09709 -1.93471 35025 ft 435 kts 198°
2026-05-05 08:21 50.03949 -1.96385 35018 ft 436 kts 198°
2026-05-05 08:21 49.98223 -1.99274 35016 ft 435 kts 198°
2026-05-05 08:22 49.92468 -2.02173 35004 ft 434 kts 197°
2026-05-05 08:22 49.86735 -2.05038 34987 ft 433 kts 197°
2026-05-05 08:23 49.81006 -2.07897 34984 ft 431 kts 197°
2026-05-05 08:23 49.75312 -2.10741 34970 ft 430 kts 197°
2026-05-05 08:24 49.69655 -2.13549 34957 ft 429 kts 197°
2026-05-05 08:24 49.63974 -2.16361 34955 ft 428 kts 197°
2026-05-05 08:25 49.58306 -2.19164 34945 ft 428 kts 197°
2026-05-05 08:25 49.52649 -2.21960 34937 ft 426 kts 197°
2026-05-05 08:26 49.47008 -2.24740 34934 ft 425 kts 197°
2026-05-05 08:26 49.41495 -2.27453 34915 ft 426 kts 197°
2026-05-05 08:27 49.35855 -2.30219 34919 ft 426 kts 197°
2026-05-05 08:27 49.30199 -2.32992 34923 ft 427 kts 197°
2026-05-05 08:28 49.24534 -2.35751 34920 ft 427 kts 197°
2026-05-05 08:28 49.18892 -2.38482 34930 ft 429 kts 197°
2026-05-05 08:29 49.13186 -2.41258 34932 ft 430 kts 196°
2026-05-05 08:30 49.04711 -2.45371 34939 ft 432 kts 196°
2026-05-05 08:30 48.98978 -2.48131 34957 ft 433 kts 196°
2026-05-05 08:31 48.93266 -2.50880 34954 ft 434 kts 196°
2026-05-05 08:31 48.87515 -2.53631 34959 ft 433 kts 196°
2026-05-05 08:32 48.81755 -2.56387 34968 ft 435 kts 195°
2026-05-05 08:32 48.75975 -2.59155 34979 ft 436 kts 195°
2026-05-05 08:33 48.70197 -2.61915 34965 ft 434 kts 196°
2026-05-05 08:33 48.64469 -2.64636 34968 ft 435 kts 195°
2026-05-05 08:34 48.58674 -2.67388 34983 ft 436 kts 195°
2026-05-05 08:34 48.52896 -2.70112 34968 ft 435 kts 195°
2026-05-05 08:35 48.47131 -2.72838 34951 ft 434 kts 195°
2026-05-05 08:35 48.41416 -2.75541 34932 ft 431 kts 195°
2026-05-05 08:36 48.35689 -2.78213 34925 ft 431 kts 195°
2026-05-05 08:36 48.29952 -2.80912 34932 ft 432 kts 195°
2026-05-05 08:37 48.24218 -2.83602 34921 ft 432 kts 195°
2026-05-05 08:37 48.18487 -2.86269 34926 ft 431 kts 195°
2026-05-05 08:38 48.12799 -2.88909 34938 ft 431 kts 195°
2026-05-05 08:38 48.07084 -2.91562 34920 ft 430 kts 195°
2026-05-05 08:39 48.01367 -2.94217 34921 ft 431 kts 195°
2026-05-05 08:39 47.95638 -2.96858 34913 ft 429 kts 195°
2026-05-05 08:40 47.89975 -2.99463 34900 ft 430 kts 195°
2026-05-05 08:40 47.84249 -3.02107 34903 ft 430 kts 195°
2026-05-05 08:41 47.78527 -3.04731 34909 ft 431 kts 195°
2026-05-05 08:41 47.72788 -3.07368 34910 ft 433 kts 195°
2026-05-05 08:42 47.67053 -3.09983 34925 ft 436 kts 195°
2026-05-05 08:42 47.61255 -3.12623 34929 ft 437 kts 195°
2026-05-05 08:43 47.55433 -3.15270 34938 ft 438 kts 195°
2026-05-05 08:43 47.49597 -3.17918 34941 ft 439 kts 195°
2026-05-05 08:44 47.43758 -3.20564 34941 ft 440 kts 195°
2026-05-05 08:44 47.37905 -3.23212 34945 ft 440 kts 195°
2026-05-05 08:45 47.32177 -3.25791 34947 ft 440 kts 195°
2026-05-05 08:45 47.26304 -3.28436 34952 ft 441 kts 195°
2026-05-05 08:46 47.20425 -3.31067 34952 ft 441 kts 195°
2026-05-05 08:46 47.14562 -3.33678 34946 ft 440 kts 195°
2026-05-05 08:47 47.08737 -3.36293 34945 ft 440 kts 195°
2026-05-05 08:47 47.02859 -3.38929 34947 ft 442 kts 195°
2026-05-05 08:48 46.96966 -3.41529 34946 ft 443 kts 195°
2026-05-05 08:48 46.91062 -3.44146 34934 ft 444 kts 195°
2026-05-05 08:49 46.85198 -3.46737 34945 ft 442 kts 195°
2026-05-05 08:49 46.79317 -3.49336 34942 ft 440 kts 195°
2026-05-05 08:50 46.73454 -3.51920 34925 ft 440 kts 195°
2026-05-05 08:50 46.67589 -3.54495 34924 ft 439 kts 195°
2026-05-05 08:51 46.61794 -3.57031 34908 ft 438 kts 195°
2026-05-05 08:51 46.55973 -3.59579 34897 ft 437 kts 195°
2026-05-05 08:52 46.50138 -3.62116 34907 ft 438 kts 195°
2026-05-05 08:52 46.44329 -3.64652 34914 ft 439 kts 195°
2026-05-05 08:53 46.38475 -3.67198 34913 ft 440 kts 195°
2026-05-05 08:53 46.32547 -3.69428 34926 ft 441 kts 190°
2026-05-05 08:54 46.26471 -3.70774 34937 ft 442 kts 184°
2026-05-05 08:54 46.20352 -3.71660 34932 ft 441 kts 185°
2026-05-05 08:55 46.14302 -3.72579 34926 ft 439 kts 185°
2026-05-05 08:55 46.08164 -3.73500 35256 ft 446 kts 185°
2026-05-05 08:55 46.05079 -3.73958 35557 ft 446 kts 185°
2026-05-05 08:56 46.01995 -3.74424 35843 ft 446 kts 185°
2026-05-05 08:56 45.98910 -3.74884 36180 ft 445 kts 185°
2026-05-05 08:56 45.95823 -3.75336 36375 ft 447 kts 185°
2026-05-05 08:56 45.92731 -3.75787 36588 ft 447 kts 185°
2026-05-05 08:57 45.89679 -3.76233 36848 ft 446 kts 185°
2026-05-05 08:57 45.86608 -3.76682 37157 ft 443 kts 186°
2026-05-05 08:57 45.83553 -3.77138 37511 ft 440 kts 185°
2026-05-05 08:57 45.80512 -3.77581 37766 ft 438 kts 186°
2026-05-05 08:58 45.77473 -3.78022 37947 ft 438 kts 186°
2026-05-05 08:58 45.74431 -3.78467 38094 ft 440 kts 186°
2026-05-05 08:58 45.71389 -3.78917 38224 ft 440 kts 186°
2026-05-05 08:59 45.66316 -3.79671 38495 ft 441 kts 186°
2026-05-05 08:59 45.62273 -3.80264 38712 ft 441 kts 186°
2026-05-05 08:59 45.59214 -3.80703 38904 ft 442 kts 186°
2026-05-05 09:00 45.53316 -3.81557 38991 ft 440 kts 186°
2026-05-05 09:00 45.48254 -3.82295 38984 ft 441 kts 186°
2026-05-05 09:01 45.42154 -3.83200 38990 ft 440 kts 186°
2026-05-05 09:01 45.35073 -3.84217 38990 ft 440 kts 186°
2026-05-05 09:02 45.28977 -3.85096 39001 ft 441 kts 186°
2026-05-05 09:02 45.23867 -3.85832 38997 ft 441 kts 186°
2026-05-05 09:03 45.17804 -3.86707 39012 ft 441 kts 187°
2026-05-05 09:03 45.11696 -3.87594 39010 ft 441 kts 187°
2026-05-05 09:04 45.05602 -3.88466 38989 ft 439 kts 187°
2026-05-05 09:04 44.99535 -3.89330 38988 ft 438 kts 187°
2026-05-05 09:05 44.93515 -3.90189 38980 ft 436 kts 187°
2026-05-05 09:05 44.87474 -3.91038 38982 ft 436 kts 187°
2026-05-05 09:06 44.81451 -3.91905 38972 ft 435 kts 187°
2026-05-05 09:06 44.75440 -3.92758 38968 ft 434 kts 188°
2026-05-05 09:07 44.69431 -3.93611 38969 ft 434 kts 188°
2026-05-05 09:07 44.63462 -3.94457 38969 ft 435 kts 188°
2026-05-05 09:08 44.57430 -3.95306 38984 ft 437 kts 188°
2026-05-05 09:08 44.51369 -3.96154 38994 ft 438 kts 188°
2026-05-05 09:09 44.45288 -3.97008 39024 ft 440 kts 188°
2026-05-05 09:09 44.39214 -3.97857 39028 ft 441 kts 188°
2026-05-05 09:10 44.33076 -3.98361 39024 ft 444 kts 183°
2026-05-05 09:10 44.26894 -3.98146 39028 ft 445 kts 179°
2026-05-05 09:11 44.20707 -3.97516 39031 ft 446 kts 179°
2026-05-05 09:11 44.14514 -3.96933 39035 ft 446 kts 179°
2026-05-05 09:12 44.08357 -3.96346 39034 ft 447 kts 179°
2026-05-05 09:12 44.02142 -3.95735 39042 ft 448 kts 179°
2026-05-05 09:13 43.95935 -3.95128 39039 ft 447 kts 179°
2026-05-05 09:13 43.89729 -3.94528 39030 ft 446 kts 179°
2026-05-05 09:14 43.83536 -3.93928 39031 ft 446 kts 179°
2026-05-05 09:14 43.77395 -3.93351 39027 ft 446 kts 179°
2026-05-05 09:15 43.71204 -3.92758 39028 ft 445 kts 179°
2026-05-05 09:15 43.65137 -3.92168 39015 ft 443 kts 179°
2026-05-05 09:16 43.59006 -3.91575 39003 ft 442 kts 179°
2026-05-05 09:16 43.52910 -3.91002 39001 ft 442 kts 179°
2026-05-05 09:17 43.46763 -3.90613 39017 ft 441 kts 183°
2026-05-05 09:17 43.40644 -3.90935 39040 ft 439 kts 187°
2026-05-05 09:18 43.34566 -3.91825 39044 ft 439 kts 188°
2026-05-05 09:18 43.28535 -3.92693 39042 ft 437 kts 189°
2026-05-05 09:19 43.22493 -3.93574 39032 ft 437 kts 189°
2026-05-05 09:19 43.16440 -3.94470 39044 ft 437 kts 189°
2026-05-05 09:20 43.10395 -3.95362 39041 ft 437 kts 189°
2026-05-05 09:20 43.04409 -3.96238 39036 ft 435 kts 189°
2026-05-05 09:21 42.98411 -3.97114 39013 ft 432 kts 189°
2026-05-05 09:21 42.92431 -3.97986 39021 ft 432 kts 189°
2026-05-05 09:22 42.86468 -3.98868 39010 ft 431 kts 189°
2026-05-05 09:22 42.80513 -3.99724 39008 ft 430 kts 189°
2026-05-05 09:23 42.74608 -4.00582 38993 ft 429 kts 190°
2026-05-05 09:23 42.68672 -4.01443 38984 ft 428 kts 190°
2026-05-05 09:24 42.62759 -4.02299 38984 ft 428 kts 190°
2026-05-05 09:24 42.56842 -4.03153 38983 ft 427 kts 190°
2026-05-05 09:25 42.50919 -4.04019 38996 ft 427 kts 190°
2026-05-05 09:25 42.45068 -4.04860 39000 ft 429 kts 190°
2026-05-05 09:26 42.39128 -4.05710 38827 ft 427 kts 190°
2026-05-05 09:26 42.36183 -4.06122 38438 ft 426 kts 190°
2026-05-05 09:26 42.33238 -4.06501 37926 ft 424 kts 189°
2026-05-05 09:26 42.30312 -4.06866 37382 ft 422 kts 190°
2026-05-05 09:27 42.27388 -4.07227 36801 ft 421 kts 190°
2026-05-05 09:27 42.24480 -4.07589 36189 ft 419 kts 190°
2026-05-05 09:27 42.21615 -4.07943 35483 ft 420 kts 190°
2026-05-05 09:27 42.18698 -4.08312 34704 ft 423 kts 191°
2026-05-05 09:28 42.15748 -4.08687 33907 ft 426 kts 190°
2026-05-05 09:28 42.12800 -4.09053 33227 ft 425 kts 191°
2026-05-05 09:28 42.09857 -4.09424 32469 ft 425 kts 191°
2026-05-05 09:28 42.06902 -4.09796 31711 ft 426 kts 191°
2026-05-05 09:29 42.03951 -4.10170 30939 ft 427 kts 190°
2026-05-05 09:29 42.00986 -4.10544 30178 ft 428 kts 190°
2026-05-05 09:29 41.98040 -4.10914 29599 ft 423 kts 190°
2026-05-05 09:29 41.95171 -4.11277 29027 ft 418 kts 190°
2026-05-05 09:30 41.92285 -4.11633 28369 ft 415 kts 190°
2026-05-05 09:30 41.89610 -4.11964 27821 ft 411 kts 190°
2026-05-05 09:30 41.86778 -4.12316 27272 ft 406 kts 190°
2026-05-05 09:30 41.83973 -4.12666 26680 ft 403 kts 190°
2026-05-05 09:31 41.81200 -4.13013 26092 ft 399 kts 191°
2026-05-05 09:31 41.78453 -4.13359 25502 ft 394 kts 191°
2026-05-05 09:31 41.75737 -4.13702 24943 ft 391 kts 191°
2026-05-05 09:31 41.73037 -4.14043 24355 ft 388 kts 191°
2026-05-05 09:32 41.70393 -4.14367 23830 ft 385 kts 190°
2026-05-05 09:32 41.67737 -4.14694 23272 ft 382 kts 191°
2026-05-05 09:32 41.65100 -4.15026 22653 ft 381 kts 190°
2026-05-05 09:32 41.62469 -4.15356 22065 ft 379 kts 190°
2026-05-05 09:33 41.59853 -4.15687 21438 ft 377 kts 190°
2026-05-05 09:33 41.57249 -4.16009 20834 ft 374 kts 190°
2026-05-05 09:33 41.54661 -4.16329 20225 ft 372 kts 190°
2026-05-05 09:33 41.52082 -4.16651 19600 ft 372 kts 189°
2026-05-05 09:34 41.49546 -4.16962 19090 ft 370 kts 189°
2026-05-05 09:34 41.46988 -4.17265 18478 ft 367 kts 189°
2026-05-05 09:34 41.44448 -4.17549 17866 ft 366 kts 188°
2026-05-05 09:34 41.41921 -4.17831 17265 ft 364 kts 188°
2026-05-05 09:35 41.39411 -4.18115 16703 ft 361 kts 188°
2026-05-05 09:35 41.34448 -4.18674 15696 ft 354 kts 188°
2026-05-05 09:35 41.31992 -4.18946 15198 ft 351 kts 188°
2026-05-05 09:36 41.29566 -4.19208 15040 ft 351 kts 188°
2026-05-05 09:36 41.27155 -4.19473 15018 ft 353 kts 188°
2026-05-05 09:36 41.24711 -4.19712 15016 ft 352 kts 187°
2026-05-05 09:36 41.22257 -4.19867 15019 ft 353 kts 186°
2026-05-05 09:37 41.19804 -4.19993 15017 ft 353 kts 186°
2026-05-05 09:37 41.17353 -4.20122 15017 ft 353 kts 186°
2026-05-05 09:37 41.14900 -4.20254 15018 ft 352 kts 186°
2026-05-05 09:37 41.12453 -4.20403 15017 ft 352 kts 186°
2026-05-05 09:38 41.10013 -4.20554 15018 ft 353 kts 186°
2026-05-05 09:38 41.07594 -4.20699 15010 ft 351 kts 186°
2026-05-05 09:38 41.05152 -4.20846 15008 ft 351 kts 186°
2026-05-05 09:38 41.02715 -4.20992 15009 ft 351 kts 186°
2026-05-05 09:39 41.00267 -4.21142 15009 ft 352 kts 186°
2026-05-05 09:39 40.97831 -4.21286 15006 ft 350 kts 186°
2026-05-05 09:39 40.95388 -4.21421 15008 ft 352 kts 186°
2026-05-05 09:39 40.92948 -4.21561 15007 ft 350 kts 187°
2026-05-05 09:40 40.90511 -4.21711 15000 ft 351 kts 187°
2026-05-05 09:40 40.88076 -4.21863 14996 ft 349 kts 187°
2026-05-05 09:40 40.85675 -4.22008 14997 ft 351 kts 187°
2026-05-05 09:40 40.83244 -4.22157 14961 ft 349 kts 187°
2026-05-05 09:41 40.80830 -4.22305 14689 ft 347 kts 187°
2026-05-05 09:41 40.78431 -4.22453 14231 ft 346 kts 187°
2026-05-05 09:41 40.76045 -4.22598 13666 ft 343 kts 187°
2026-05-05 09:41 40.73663 -4.22740 13117 ft 342 kts 186°
2026-05-05 09:42 40.71293 -4.22883 12571 ft 340 kts 186°
2026-05-05 09:42 40.68936 -4.23029 12144 ft 336 kts 186°
2026-05-05 09:42 40.66627 -4.23168 12019 ft 339 kts 186°
2026-05-05 09:42 40.64262 -4.23310 12000 ft 340 kts 186°
2026-05-05 09:43 40.61902 -4.23452 11999 ft 339 kts 185°
2026-05-05 09:43 40.59563 -4.23592 12008 ft 341 kts 186°
2026-05-05 09:43 40.57193 -4.23733 12008 ft 340 kts 186°
2026-05-05 09:43 40.54834 -4.23863 12004 ft 339 kts 184°
2026-05-05 09:44 40.52466 -4.23627 11817 ft 345 kts 173°
2026-05-05 09:44 40.50154 -4.22821 11570 ft 345 kts 163°
2026-05-05 09:44 40.47927 -4.21655 11341 ft 343 kts 161°
2026-05-05 09:44 40.45707 -4.20504 11234 ft 344 kts 161°
2026-05-05 09:45 40.43508 -4.19380 11137 ft 342 kts 161°
2026-05-05 09:45 40.41317 -4.18262 11066 ft 333 kts 161°
2026-05-05 09:45 40.39334 -4.17245 11007 ft 320 kts 162°
2026-05-05 09:45 40.37319 -4.16204 11014 ft 301 kts 162°
2026-05-05 09:46 40.35459 -4.15061 11022 ft 298 kts 147°
2026-05-05 09:46 40.34001 -4.13076 11005 ft 307 kts 122°
2026-05-05 09:46 40.33177 -4.10498 10860 ft 308 kts 110°
2026-05-05 09:46 40.32535 -4.07870 10517 ft 307 kts 108°
2026-05-05 09:47 40.31901 -4.05182 10194 ft 302 kts 109°
2026-05-05 09:47 40.31271 -4.02607 9815 ft 299 kts 109°
2026-05-05 09:47 40.30635 -4.00016 9400 ft 298 kts 109°
2026-05-05 09:47 40.30001 -3.97486 9238 ft 288 kts 109°
2026-05-05 09:48 40.29386 -3.95042 9138 ft 276 kts 109°
2026-05-05 09:48 40.28789 -3.92678 8908 ft 271 kts 109°
2026-05-05 09:48 40.28203 -3.90342 8587 ft 269 kts 109°
2026-05-05 09:48 40.27620 -3.88016 8244 ft 268 kts 109°
2026-05-05 09:49 40.27046 -3.85730 7922 ft 267 kts 109°
2026-05-05 09:49 40.26465 -3.83428 7646 ft 265 kts 109°
2026-05-05 09:49 40.25875 -3.81154 7323 ft 262 kts 108°
2026-05-05 09:49 40.25285 -3.78885 7075 ft 261 kts 108°
2026-05-05 09:50 40.24720 -3.76592 7015 ft 271 kts 109°
2026-05-05 09:50 40.24141 -3.74293 7023 ft 266 kts 109°
2026-05-05 09:50 40.23553 -3.72020 6933 ft 260 kts 109°
2026-05-05 09:50 40.22985 -3.69756 6565 ft 260 kts 109°
2026-05-05 09:51 40.22432 -3.67539 6173 ft 260 kts 108°
2026-05-05 09:51 40.21875 -3.65304 6038 ft 260 kts 109°
2026-05-05 09:51 40.21298 -3.63052 6019 ft 260 kts 109°
2026-05-05 09:51 40.20738 -3.60782 6016 ft 262 kts 109°
2026-05-05 09:52 40.20157 -3.58548 6018 ft 258 kts 110°
2026-05-05 09:52 40.19568 -3.56317 6015 ft 261 kts 109°
2026-05-05 09:52 40.18983 -3.54072 6016 ft 260 kts 109°
2026-05-05 09:52 40.18414 -3.51858 6011 ft 260 kts 109°
2026-05-05 09:53 40.17842 -3.49617 6022 ft 261 kts 109°
2026-05-05 09:53 40.17292 -3.47359 6002 ft 260 kts 102°
2026-05-05 09:53 40.17266 -3.45010 6007 ft 262 kts 77°
2026-05-05 09:53 40.17847 -3.42756 6012 ft 263 kts 69°
2026-05-05 09:54 40.18468 -3.40533 5991 ft 259 kts 70°
2026-05-05 09:54 40.19078 -3.38290 5984 ft 261 kts 69°
2026-05-05 09:54 40.19690 -3.36072 5853 ft 257 kts 69°
2026-05-05 09:54 40.20295 -3.33875 5497 ft 254 kts 69°
2026-05-05 09:55 40.21120 -3.31956 5352 ft 233 kts 42°
2026-05-05 09:55 40.22444 -3.30952 5083 ft 219 kts
2026-05-05 09:55 40.23926 -3.31114 4999 ft 219 kts 335°
2026-05-05 09:55 40.25280 -3.31977 4988 ft 218 kts 332°
2026-05-05 09:56 40.26628 -3.32887 4989 ft 217 kts 326°
2026-05-05 09:56 40.27879 -3.33946 5014 ft 209 kts 322°
2026-05-05 09:56 40.29036 -3.35067 4984 ft 200 kts 321°
2026-05-05 09:56 40.30120 -3.36154 5001 ft 195 kts 320°
2026-05-05 09:57 40.31201 -3.37247 4998 ft 196 kts 320°
2026-05-05 09:57 40.32278 -3.38334 4997 ft 196 kts 320°
2026-05-05 09:57 40.33301 -3.39365 4994 ft 177 kts 320°
2026-05-05 09:57 40.34261 -3.40339 5006 ft 176 kts 320°
2026-05-05 09:58 40.35216 -3.41305 4914 ft 174 kts 320°
2026-05-05 09:58 40.36166 -3.42271 4674 ft 173 kts 320°
2026-05-05 09:58 40.37127 -3.43244 4436 ft 175 kts 321°
2026-05-05 09:58 40.38087 -3.44215 4194 ft 175 kts 321°
2026-05-05 09:59 40.39042 -3.45179 3977 ft 172 kts 321°
2026-05-05 09:59 40.39980 -3.46134 3743 ft 173 kts 321°
2026-05-05 09:59 40.40926 -3.47098 3507 ft 166 kts 322°
2026-05-05 09:59 40.41774 -3.47954 3287 ft 144 kts 322°
2026-05-05 10:00 40.42543 -3.48733 3113 ft 142 kts 321°
2026-05-05 10:00 40.43306 -3.49512 2927 ft 135 kts 322°
2026-05-05 10:00 40.44035 -3.50253 2752 ft 133 kts 323°
2026-05-05 10:00 40.44791 -3.51015 2574 ft 138 kts 322°
2026-05-05 10:01 40.45530 -3.51762 2390 ft 132 kts 323°
2026-05-05 10:01 40.46264 -3.52497 2217 ft 133 kts 323°
2026-05-05 10:01 40.46993 -3.53248 2031 ft 132 kts 322°
2026-05-05 10:01 40.47702 -3.53953 1982 ft 114 kts 321°
2026-05-05 10:02 40.48142 -3.54422 1980 ft 65 kts 322°
2026-05-05 10:02 40.48476 -3.54764 1980 ft 58 kts 322°
2026-05-05 10:02 40.48759 -3.55102 1980 ft 53 kts 302°
2026-05-05 10:02 40.48855 -3.55387 1982 ft 22 kts 292°
2026-05-05 10:03 40.48957 -3.55534 1981 ft 22 kts 319°
2026-05-05 10:03 40.49070 -3.55644 1984 ft 17 kts 324°
2026-05-05 10:03 40.49168 -3.55747 1980 ft 19 kts 322°
2026-05-05 10:03 40.49278 -3.55862 1980 ft 21 kts 313°
2026-05-05 10:04 40.49303 -3.56038 1980 ft 15 kts 269°
2026-05-05 10:04 40.49301 -3.56119 1980 ft 10 kts 269°
2026-05-05 10:04 40.49291 -3.56221 1982 ft 12 kts 236°
2026-05-05 10:04 40.49228 -3.56298 1981 ft 14 kts 242°
2026-05-05 10:05 40.49218 -3.56363 1980 ft 0 kts 268°
2026-05-05 10:05 40.49213 -3.56387 1980 ft 10 kts 245°
2026-05-05 10:05 40.49171 -3.56491 1980 ft 15 kts 257°
2026-05-05 10:05 40.49169 -3.56532 1980 ft 0 kts 266°
2026-05-05 10:06 40.49160 -3.56555 1983 ft 8 kts 245°
2026-05-05 10:06 40.49146 -3.56640 1980 ft 7 kts 271°
2026-05-05 10:06 40.49146 -3.56660 1980 ft 0 kts 269°